TimeEDT,TemperatureF,Dew PointF,Humidity,Sea Level PressureIn,VisibilityMPH,Wind Direction,Wind SpeedMPH,Gust SpeedMPH,PrecipitationIn,Events,Conditions,WindDirDegrees,DateUTC
12:53 AM,37.9,34.0,86,30.04,10.0,West,5.8,-,N/A,,Overcast,260,2013-10-24 04:53:00
1:53 AM,39.0,34.0,82,30.05,10.0,WSW,4.6,-,N/A,,Overcast,250,2013-10-24 05:53:00
2:53 AM,39.0,34.0,82,30.05,10.0,SSW,4.6,-,N/A,,Overcast,210,2013-10-24 06:53:00
3:53 AM,37.9,34.0,86,30.06,10.0,West,5.8,-,N/A,,Overcast,260,2013-10-24 07:53:00
4:53 AM,37.9,33.1,83,30.07,10.0,West,6.9,-,N/A,,Overcast,260,2013-10-24 08:53:00
5:53 AM,37.9,32.0,79,30.09,10.0,WSW,5.8,-,N/A,,Overcast,250,2013-10-24 09:53:00
6:53 AM,37.9,32.0,79,30.09,10.0,SW,4.6,-,N/A,,Overcast,230,2013-10-24 10:53:00
7:53 AM,37.0,30.9,79,30.10,10.0,SW,5.8,-,N/A,,Overcast,230,2013-10-24 11:53:00
8:53 AM,37.0,32.0,82,30.12,10.0,WSW,8.1,-,N/A,,Overcast,240,2013-10-24 12:53:00
9:53 AM,39.0,32.0,76,30.13,10.0,West,9.2,-,N/A,,Overcast,260,2013-10-24 13:53:00
10:53 AM,39.9,33.1,77,30.14,10.0,West,10.4,-,N/A,,Overcast,270,2013-10-24 14:53:00
11:39 AM,41.0,33.8,76,30.12,10.0,WNW,6.9,-,N/A,,Overcast,290,2013-10-24 15:39:00
11:50 AM,39.2,30.2,70,30.12,10.0,West,9.2,-,0.00,Rain,Light Rain,280,2013-10-24 15:50:00
11:53 AM,39.9,32.0,73,30.14,9.0,West,10.4,-,0.01,Rain,Light Rain,270,2013-10-24 15:53:00
12:01 PM,39.2,33.8,81,30.13,9.0,West,8.1,-,0.00,Rain,Light Rain,260,2013-10-24 16:01:00
12:32 PM,37.4,35.6,93,30.12,3.0,West,4.6,-,0.03,Rain,Light Rain,260,2013-10-24 16:32:00
12:53 PM,41.0,36.0,82,30.13,3.0,WSW,5.8,-,0.03,,Haze,240,2013-10-24 16:53:00
1:30 PM,37.4,33.8,87,30.13,2.0,WNW,16.1,25.3,0.02,Rain,Heavy Rain,290,2013-10-24 17:30:00
1:53 PM,37.9,35.1,89,30.13,7.0,WNW,8.1,-,0.03,Snow,Light Snow,300,2013-10-24 17:53:00
2:03 PM,39.2,35.6,87,30.12,10.0,West,10.4,-,0.00,,Overcast,280,2013-10-24 18:03:00
2:35 PM,41.0,33.8,76,30.12,8.0,West,10.4,-,0.00,,Mostly Cloudy,270,2013-10-24 18:35:00
2:53 PM,42.1,32.0,67,30.13,8.0,West,9.2,-,0.00,,Mostly Cloudy,280,2013-10-24 18:53:00
3:53 PM,43.0,32.0,65,30.14,10.0,West,10.4,-,0.01,,Mostly Cloudy,270,2013-10-24 19:53:00
4:00 PM,42.8,32.0,66,30.12,10.0,West,10.4,-,N/A,,Mostly Cloudy,280,2013-10-24 20:00:00
4:53 PM,41.0,30.9,67,30.16,10.0,NW,9.2,-,0.00,Rain,Light Rain,310,2013-10-24 20:53:00
5:53 PM,39.9,30.9,70,30.17,10.0,West,6.9,-,0.00,,Partly Cloudy,280,2013-10-24 21:53:00
6:53 PM,37.9,30.9,76,30.19,10.0,Calm,Calm,-,N/A,,Partly Cloudy,0,2013-10-24 22:53:00
7:53 PM,37.9,32.0,79,30.21,10.0,Calm,Calm,-,N/A,,Overcast,0,2013-10-24 23:53:00
8:53 PM,37.9,30.9,76,30.22,10.0,Calm,Calm,-,N/A,,Overcast,0,2013-10-25 00:53:00
9:53 PM,37.9,30.9,76,30.23,10.0,Calm,Calm,-,N/A,,Overcast,0,2013-10-25 01:53:00
10:53 PM,37.9,30.9,76,30.24,10.0,West,5.8,-,N/A,,Overcast,280,2013-10-25 02:53:00
11:53 PM,36.0,30.9,82,30.25,10.0,West,4.6,-,N/A,,Mostly Cloudy,280,2013-10-25 03:53:00